Location: Township of Marena
(38.1747°N, 99.6798°W)
Time: 12:03:29
(UTC+00:00)

Cosmos 1908 - Pass Details

Date: 26 October 2020
Orbit: 512 x 529 km, 82.5° (Epoch: 24 November)

Event Time Altitude Azimuth Distance (km) Brightness Sun altitude
Rises 00:05:01 0° 194° (SSW) 2,618 7.2 -4.3°
Reaches altitude 10° 00:07:09 10° 198° (SSW) 1,738 6.3 -4.7°
Maximum altitude 00:10:55 60° 279° (W) 599 3.9 -5.4°
Drops below altitude 10° 00:14:44 10° 360° (N) 1,762 5.8 -6.2°
Sets 00:16:55 0° 4° (N) 2,658 6.7 -6.6°
